Location: Aufkirchen
(47.9603°N, 11.3653°E)
Time: 16:48:09
(UTC+01:00)

Transit 4A - Pass Details

Date: 01 December 2020
Orbit: 864 x 980 km, 66.8° (Epoch: 26 January)

Event Time Altitude Azimuth Distance (km) Brightness Sun altitude
Rises 14:35:47 0° 325° (NW) 3,690 10.8 12.3°
Reaches altitude 10° 14:38:43 10° 336° (NNW) 2,734 10.1 12.0°
Maximum altitude 14:44:20 31° 37° (NE) 1,629 8.8 11.4°
Drops below altitude 10° 14:49:50 10° 99° (E) 2,678 10.1 10.8°
Sets 14:52:40 0° 109° (ESE) 3,602 10.8 10.5°
